TOM78H LEAL-LEPA

Flight info

Callsign TOM78H
Flight time N/A
Altitude 29000
Route MITOS N851 RUXET
Aircraft B38M/M-SDE1FGHILORVWXY/HB1

Departure

Time 2026-05-04 19:00
Airport Alicante-Elche Miguel Hernández Airport (LEAL)

Arrival

Time N/A
Airport Palma de Mallorca Airport (LEPA)
Time Latitude Longitude Altitude Speed Heading
2026-05-04 18:46 38.28457 -0.55327 93 ft 0 kts 282°
2026-05-04 18:47 38.28465 -0.55375 95 ft 10 kts 281°
2026-05-04 18:48 38.28479 -0.55463 95 ft 3 kts 281°
2026-05-04 18:48 38.28484 -0.55499 98 ft 6 kts 279°
2026-05-04 18:48 38.28497 -0.55590 99 ft 16 kts 281°
2026-05-04 18:48 38.28516 -0.55700 101 ft 7 kts 281°
2026-05-04 18:49 38.28532 -0.55816 102 ft 20 kts 280°
2026-05-04 18:49 38.28549 -0.55942 102 ft 11 kts 281°
2026-05-04 18:49 38.28576 -0.56062 102 ft 20 kts 282°
2026-05-04 18:49 38.28593 -0.56174 103 ft 14 kts 281°
2026-05-04 18:50 38.28608 -0.56284 108 ft 0 kts 279°
2026-05-04 18:50 38.28614 -0.56325 108 ft 9 kts 280°
2026-05-04 18:50 38.28624 -0.56400 113 ft 5 kts 279°
2026-05-04 18:50 38.28634 -0.56473 116 ft 2 kts 280°
2026-05-04 18:51 38.28643 -0.56531 119 ft 11 kts 281°
2026-05-04 18:51 38.28638 -0.56578 119 ft 7 kts 237°
2026-05-04 18:51 38.28621 -0.56592 120 ft 0 kts 192°
2026-05-04 18:52 38.28605 -0.56596 120 ft 3 kts 192°
2026-05-04 18:52 38.28551 -0.56610 120 ft 11 kts 191°
2026-05-04 18:52 38.28515 -0.56637 123 ft 3 kts 249°
2026-05-04 18:53 38.28518 -0.56698 125 ft 11 kts 277°
2026-05-04 18:53 38.28536 -0.56825 129 ft 18 kts 280°
2026-05-04 18:53 38.28562 -0.57011 139 ft 24 kts 279°
2026-05-04 18:53 38.28589 -0.57212 148 ft 22 kts 280°
2026-05-04 18:54 38.28600 -0.57386 154 ft 20 kts 245°
2026-05-04 18:54 38.28549 -0.57429 156 ft 0 kts 184°
2026-05-04 18:59 38.28538 -0.57430 157 ft 6 kts 185°
2026-05-04 18:59 38.28464 -0.57437 157 ft 8 kts 165°
2026-05-04 18:59 38.28439 -0.57402 155 ft 10 kts 110°
2026-05-04 18:59 38.28432 -0.57357 153 ft 15 kts 98°
2026-05-04 19:00 38.28357 -0.56809 130 ft 108 kts 100°
2026-05-04 19:00 38.28181 -0.55552 213 ft 170 kts 101°
2026-05-04 19:00 38.27950 -0.54060 1085 ft 169 kts 104°
2026-05-04 19:00 38.27704 -0.52567 1992 ft 178 kts 103°
2026-05-04 19:01 38.27467 -0.50941 2574 ft 198 kts 95°
2026-05-04 19:01 38.27890 -0.49164 3001 ft 230 kts 50°
2026-05-04 19:01 38.29086 -0.47683 3623 ft 249 kts 46°
2026-05-04 19:01 38.30120 -0.45913 4541 ft 254 kts 55°
2026-05-04 19:02 38.31074 -0.43946 5442 ft 263 kts 57°
2026-05-04 19:02 38.31956 -0.41893 6414 ft 262 kts 60°
2026-05-04 19:02 38.32775 -0.39798 7041 ft 276 kts 62°
2026-05-04 19:02 38.33604 -0.37502 7484 ft 293 kts 64°
2026-05-04 19:03 38.34431 -0.35085 8224 ft 295 kts 65°
2026-05-04 19:03 38.35235 -0.32670 9010 ft 297 kts 66°
2026-05-04 19:03 38.36033 -0.30235 9813 ft 298 kts 66°
2026-05-04 19:03 38.36814 -0.27828 10545 ft 298 kts 67°
2026-05-04 19:04 38.37601 -0.25385 11311 ft 297 kts 67°
2026-05-04 19:04 38.38379 -0.22962 12101 ft 294 kts 67°
2026-05-04 19:04 38.39146 -0.20565 12897 ft 289 kts 67°
2026-05-04 19:04 38.39896 -0.18222 13730 ft 282 kts 67°
2026-05-04 19:05 38.40624 -0.15942 14473 ft 272 kts 68°
2026-05-04 19:05 38.41324 -0.13748 15110 ft 268 kts 68°
2026-05-04 19:05 38.41809 -0.12229 15243 ft 279 kts 68°
2026-05-04 19:05 38.42787 -0.09162 15785 ft 283 kts 68°
2026-05-04 19:06 38.43283 -0.07580 16063 ft 286 kts 79°
2026-05-04 19:06 38.43324 -0.05203 15659 ft 267 kts 131°
2026-05-04 19:06 38.41829 -0.03874 13829 ft 278 kts 182°
2026-05-04 19:06 38.39987 -0.03381 14337 ft 262 kts 187°
2026-05-04 19:07 38.38385 -0.03889 14812 ft 224 kts 245°
2026-05-04 19:07 38.38869 -0.05170 11896 ft 270 kts 350°
2026-05-04 19:07 38.40879 -0.04375 11424 ft 313 kts 45°
2026-05-04 19:07 38.41122 -0.01990 10711 ft 282 kts 164°
2026-05-04 19:08 38.40818 -0.03067 5835 ft 333 kts 329°
2026-05-04 19:08 38.42965 -0.03564 6460 ft 313 kts 17°
2026-05-04 19:08 38.44592 -0.01784 6907 ft 316 kts 56°
2026-05-04 19:08 38.45800 0.00554 7641 ft 302 kts 64°
2026-05-04 19:09 38.46600 0.02944 8812 ft 297 kts 75°
2026-05-04 19:09 38.47057 0.05564 9186 ft 308 kts 95°
2026-05-04 19:09 38.46395 0.07950 9972 ft 272 kts 160°
2026-05-04 19:09 38.45241 0.07259 8301 ft 258 kts 277°
2026-05-04 19:10 38.45246 0.07186 8192 ft 266 kts 279°